Location: Chautauqua Cemetery
(37.1092°N, 96.0778°W)
Time: 05:57:09
(UTC+00:00)

Daily predictions for brighter satellites

Satellite Brightness Start Highest point End
(mag) Time Altitude Azimuth Time Altitude Azimuth Time Altitude Azimuth
MOS 1 Rocket 3.6 01:43:51 10° NNE 01:49:20 79° ESE 01:54:39 10° S
CZ-2C R/B 2.9 01:46:16 10° NNE 01:51:12 44° E 01:56:09 10° S
Ariane Rocket 3.2 01:48:53 10° SSE 01:53:50 57° ENE 01:58:47 10° N
Shenzhou-11 Module 3.6 01:52:51 10° WNW 01:54:50 22° N 01:56:48 10° NE
ERBS 4.3 01:53:58 10° WSW 01:57:00 32° NW 02:00:02 10° NNE
USA 186 1.0 01:56:06 10° SSE 01:58:25 55° ENE 02:00:40 10° N
USA 267 3.3 01:52:18 10° NE 01:58:49 66° SE 02:05:18 10° SSW
Cosmos 1408 Rocket 3.7 01:56:00 10° S 02:00:28 82° W 02:04:57 10° N
Cosmos 292 Rocket 3.9 01:57:53 10° NNW 02:02:39 80° WSW 02:07:23 10° SSE
Cosmos 1743 Rocket 3.7 01:59:28 10° S 02:03:45 52° E 02:08:06 10° NNE
FREGAT/IRIS 2.2 02:05:41 10° SSE 02:08:17 65° ENE 02:10:54 10° N
H-2A R/B 2.8 02:03:18 10° S 02:08:25 57° W 02:13:26 10° NNW
Cosmos 389 Rocket 4.4 02:08:30 10° NE 02:10:25 14° ENE 02:11:47 12° E
Iridium 2 4.4 02:07:25 10° NNW 02:11:06 55° W 02:14:46 10° SSW
Cosmos 1633 2.8 02:09:32 10° SSW 02:13:03 68° W 02:16:34 10° N
Sich 1 4.3 02:11:50 11° SE 02:15:05 22° E 02:18:31 10° NE
ATLAS 5 CENTAUR R/B 3.4 02:09:56 10° NNW 02:15:09 32° NE 02:20:16 13° ESE
Cosmos 1833 Rocket 3.3 02:12:00 10° SSE 02:16:55 32° ESE 02:21:51 10° NE
Cosmos 972 Rocket 4.5 02:14:08 10° N 02:18:46 38° ENE 02:22:28 14° SE
ISS -0.9 02:17:44 10° WSW 02:18:57 12° SW 02:20:10 10° SSW
MetOp-A 4.2 02:13:48 10° SSE 02:19:05 65° ENE 02:24:24 10° N
DMSP B5D2-2 4.0 02:14:07 10° NNE 02:19:22 79° ESE 02:24:36 10° S
Cosmos 1697 Rocket 4.4 02:16:51 10° NNE 02:20:37 18° NE 02:23:55 11° E
Cosmos 1821 Rocket 4.5 02:17:14 10° SSE 02:22:46 38° E 02:28:24 10° NNE
Cosmos 1500 Rocket 3.5 02:19:07 10° S 02:23:25 86° E 02:27:45 10° N
Resurs 1-3 3.9 02:22:07 13° SE 02:25:52 48° ENE 02:30:05 10° N
Cosmos 2366 rocket 4.2 02:20:01 10° S 02:26:17 77° W 02:32:30 10° N
Cosmos 1862 3.5 02:24:31 10° SSE 02:28:24 49° E 02:32:20 10° NNE
FALCON 9 DEB 3.9 02:26:04 10° SSW 02:29:10 31° SE 02:32:17 10° ENE
SJ-6B 3.2 02:27:17 10° S 02:31:21 67° WSW 02:35:23 10° NNW
SPOT 3 Rocket 3.7 02:27:37 13° SSE 02:32:15 58° ENE 02:37:22 10° N
Cosmos 1656 4.2 02:30:30 10° N 02:35:40 41° ENE 02:39:00 20° ESE
Cosmos 2251 Rocket 4.2 02:31:05 10° SSW 02:36:13 57° WNW 02:41:26 10° N
IRIDIUM 104 4.3 02:39:04 10° S 02:44:13 69° E 02:49:25 10° N
Cosmos 1805 Rocket 3.5 02:42:01 10° S 02:46:23 72° E 02:50:49 10° NNE
COSMOS 2406 3.3 02:45:13 10° SSW 02:50:58 83° WNW 02:56:45 10° NNE
IRIDIUM 114 4.3 02:48:09 10° S 02:53:21 85° E 02:58:36 10° N
Cosmos 614 Rocket 4.0 02:55:55 10° SSW 03:01:03 82° WNW 03:06:16 10° NNE
IRIDIUM 103 4.4 02:57:17 10° S 03:02:29 78° W 03:07:43 10° N
Cosmos 2228 Rocket 3.7 03:01:14 10° NNW 03:05:33 54° W 03:08:58 15° SSW
Cosmos 2369 4.5 03:01:24 10° N 03:06:43 38° ENE 03:08:38 29° E
Meteor 1-4 Rocket 4.1 03:04:18 10° NNE 03:06:20 21° NE 03:06:20 21° NE
Meteor 2-6 Rocket 4.4 03:02:33 10° NNW 03:08:03 71° W 03:12:27 17° S
Cosmos 2082 Rocket 2.3 03:03:14 12° S 03:08:18 53° ESE 03:13:49 10° NNE
Cosmos 1633 Rocket 3.3 03:07:43 41° SE 03:08:32 47° E 03:12:47 10° NNE
CENTAUR R/B 4.1 03:13:55 15° ENE 03:13:55 15° ENE 03:15:36 10° ENE
Resurs 01 Rocket 1.7 03:11:49 30° S 03:13:57 74° W 03:18:22 10° NNW
SL-4 R/B 2.4 03:09:58 10° WSW 03:13:57 58° NW 03:17:39 10° NE
ERS-1 Rocket 4.1 03:16:08 26° E 03:16:43 27° ENE 03:20:54 10° NNE
Cosmos 1707 Rocket 3.4 03:19:12 10° N 03:23:33 76° E 03:24:12 61° SE
Cosmos 1818 3.8 03:19:14 10° NNW 03:24:37 57° ENE 03:25:59 44° ESE
Cosmos 1954 Rocket 4.1 03:25:26 47° SE 03:26:26 55° ESE 03:31:38 10° NNE
Cosmos 220 Rocket 3.8 03:24:32 10° NNW 03:28:45 83° WSW 03:29:19 66° S
Shenzhou-11 Module 4.4 03:27:23 10° NW 03:28:22 17° NNW 03:28:22 17° NNW
Meteor 1-27 Rocket 3.8 03:24:12 10° N 03:30:08 88° E 03:32:29 39° S
Cosmos 1470 Rocket 4.2 03:31:13 41° ENE 03:31:13 41° ENE 03:34:42 10° NNE
Spot 2 Rocket 3.4 03:29:27 52° SE 03:30:37 71° ENE 03:35:43 10° N
Lacrosse 5 4.5 03:29:57 10° N 03:31:08 11° NNE 03:32:18 10° NNE
Cosmos 972 4.4 03:28:50 10° NNW 03:33:56 79° WSW 03:35:09 51° S
MetOp-B 4.1 03:32:06 41° S 03:34:03 80° WSW 03:39:26 10° NNW
Cosmos 1812 3.7 03:31:00 10° NNW 03:34:38 42° W 03:35:34 35° SW
NOSS 3-2 (A) 3.2 03:33:14 44° S 03:34:45 58° ESE 03:40:46 10° NE
IGS 5A 3.3 03:36:29 85° ESE 03:36:34 86° ENE 03:40:43 10° N
Cosmos 1190 Rocket 4.3 03:31:54 10° SSW 03:37:07 67° WNW 03:42:24 10° NNE
GP-B 2.9 03:34:13 10° N 03:38:39 76° E 03:38:42 76° E
NOSS 3-2 (C) 4.4 03:42:27 27° ENE 03:42:27 27° ENE 03:45:47 10° NE
Cosmos 407 Rocket 4.4 03:35:40 10° SW 03:40:49 49° WNW 03:45:58 10° N
Cosmos 389 Rocket 4.4 03:42:16 10° NW 03:45:06 24° W 03:45:39 23° WSW
Cosmos 1980 Rocket 2.5 03:43:30 10° N 03:49:00 49° ENE 03:49:26 48° ENE
Cosmos 1862 Rocket 3.8 03:45:32 10° N 03:49:27 62° NE 03:49:27 62° NE
Terra 2.8 03:52:15 34° NE 03:52:15 34° NE 03:55:53 10° N
SPOT 1/Viking Rocket 3.4 03:53:31 70° S 03:54:08 85° WSW 03:59:24 10° NNW
Cosmos 1934 Rocket 4.4 03:51:46 23° SSW 03:55:47 62° W 04:02:08 10° N
ATLAS 5 CENTAUR R/B 3.1 03:54:10 10° NW 04:00:01 48° WSW 04:01:48 39° SSW
Cosmos 1833 Rocket 4.4 03:55:49 10° WSW 04:00:45 31° WNW 04:05:45 10° N
SPOT 5 3.3 04:03:34 47° NNE 04:03:34 47° NNE 04:06:50 10° N
Cosmos 1697 Rocket 2.8 03:59:29 10° NNW 04:05:02 62° WSW 04:05:40 58° SW
CARTOSAT-1 4.2 04:08:53 54° NNW 04:08:53 54° NNW 04:12:15 10° NNW
USA 32 4.3 04:08:04 57° WSW 04:08:47 63° W 04:13:59 10° N
SL-8 R/B 4.2 04:05:20 10° WNW 04:09:15 53° W 04:09:15 53° W
Cosmos 1933 Rocket 4.5 04:13:07 44° N 04:13:07 44° N 04:16:11 10° N
USA 234 3.2 04:12:39 61° ESE 04:13:48 75° NE 04:20:20 10° NW
Meteor 1-25 Rocket 4.4 04:15:19 60° WSW 04:16:02 67° W 04:21:37 10° N
CZ-3A R/B 4.3 04:06:12 10° W 04:21:07 28° SW 04:22:12 27° SSW
ATLAS 3B R/B 4.4 04:29:08 16° ENE 04:29:08 16° ENE 04:30:40 10° NE
USA 238 DEB 4.0 04:23:41 10° SW 04:30:11 60° NW 04:36:57 10° NNE
USA 238 4.0 04:23:48 10° SW 04:30:17 61° NW 04:37:03 10° NNE
Cosmos 2100 Rocket 4.2 04:38:30 59° NE 04:38:30 59° NE 04:43:36 10° NNE
SL-16 R/B 3.2 04:41:29 10° N 04:45:47 38° NE 04:45:47 38° NE
Cosmos 2082 Rocket 4.4 04:48:27 10° WSW 04:52:41 21° NW 04:56:57 10° N
Cosmos 2173 Rocket 4.2 04:55:17 65° N 04:55:17 65° N 05:00:26 10° N
ERS-1 Rocket 4.5 04:56:08 29° W 04:56:08 29° W 04:59:48 10° NW
CENTAUR R/B 2.8 05:01:01 60° WNW 05:01:05 60° NW 05:07:47 10° NNE
NOSS 3-3 (A) 4.4 04:59:37 10° NNW 05:07:25 89° WSW 05:07:32 88° SSE
NOSS 3-3 (C) 4.4 04:59:43 10° NNW 05:07:31 90° WSW 05:07:38 88° SSE
Cosmos 2322 Rocket 3.2 05:04:13 10° NNW 05:08:14 41° NNE 05:08:14 41° NNE
Cosmos 2016 Rocket 4.5 05:13:42 56° NNE 05:13:42 56° NNE 05:18:37 10° N
Lacrosse 5 3.5 05:10:47 10° NNW 05:13:57 30° N 05:13:57 30° N
Cosmos 1459 Rocket 4.5 05:17:37 57° NW 05:17:37 57° NW 05:23:05 10° N
Cosmos 2360 Rocket 3.6 05:19:13 10° N 05:22:55 31° NNE 05:22:55 31° NNE
Terra 4.2 05:31:08 17° WNW 05:31:08 17° WNW 05:32:56 10° NW
Cosmos 1980 Rocket 4.2 05:28:31 10° NW 05:31:12 19° W 05:31:12 19° W
Cosmos 2333 Rocket 4.1 05:37:57 10° N 05:41:37 21° NE 05:41:37 21° NE
ATLAS 3B R/B 3.4 06:16:20 46° NNW 06:16:20 46° NNW 06:21:55 10° NNE
SL-16 R/B 4.5 06:26:13 10° NW 06:27:38 16° WNW 06:27:38 16° WNW
Lacrosse 4 Rocket 4.5 06:42:31 13° N 06:42:31 13° N 06:43:09 10° N
Cosmos 2219 Rocket 3.6 06:38:14 10° NNW 06:41:28 34° N 06:41:28 34° N
CZ-2D R/B 4.3 06:59:21 10° NE 07:01:45 19° ENE 07:01:45 19° ENE
COSMOS 2428 4.1 07:01:43 10° NNW 07:04:47 33° NNW 07:04:47 33° NNW
Cosmos 2360 Rocket 4.5 07:03:32 10° NW 07:04:39 15° NW 07:04:39 15° NW
Cosmos 2297 Rocket 3.6 07:18:05 33° NE 07:18:05 33° NE 07:21:15 10° NNE
Cosmos 2333 Rocket 4.0 07:21:19 10° NNW 07:23:35 24° NW 07:23:35 24° NW
Cosmos 2237 Rocket 3.3 07:27:32 10° NNW 07:31:36 41° NNE 07:31:36 41° NNE
SL-16 R/B 2.7 08:00:22 69° NE 08:00:22 69° NE 08:06:18 10° N
Resurs 1-4 Rocket 3.0 07:54:58 10° NNE 07:58:42 47° NNE 07:58:42 47° NNE
Cosmos 2227 Rocket 2.9 08:06:20 50° N 08:06:20 50° N 08:10:40 10° NNE
SJ 16-02 3.2 08:08:04 29° NE 08:08:04 29° NE 08:10:21 10° NNE
Cosmos 1898 Rocket 4.5 08:16:54 41° ENE 08:16:54 41° ENE 08:21:05 10° NNE
USA 215 3.1 08:09:40 10° NE 08:16:08 80° ESE 08:16:08 80° ESE
ATLAS 3B CENTAUR R/B 3.9 08:20:18 53° SSW 08:20:52 54° S 08:28:35 10° ESE
ARIANE 5 R/B 4.2 08:19:02 10° NE 08:23:17 25° E 08:24:00 24° ESE
Cosmos 1655 Rocket 4.4 08:20:11 10° N 08:26:20 56° E 08:27:35 48° ESE
Cosmos 2082 3.9 08:27:15 66° N 08:27:15 66° N 08:32:06 10° NNE
Cosmos 1626 4.4 08:33:07 10° N 08:34:37 22° N 08:34:37 22° N
Meteor 2-19 Rocket 4.5 08:33:40 10° N 08:39:51 75° E 08:40:47 63° SE
IRS-1D 3.6 08:35:49 10° NNE 08:40:24 72° NNE 08:40:24 72° NNE
SL-16 R/B 2.4 08:36:59 10° NNW 08:42:41 69° ENE 08:43:47 55° ESE
NOSS 3-1 (C) 3.1 08:43:10 80° E 08:43:10 80° E 08:48:59 10° NE
CZ-2D R/B 3.0 08:38:38 10° N 08:43:04 40° NW 08:43:04 40° NW
CZ-4B R/B 3.8 08:39:46 10° N 08:43:34 56° N 08:43:34 56° N
ADEOS II 2.1 08:40:01 10° NNE 08:45:09 78° E 08:45:09 78° E
NPP 4.3 08:40:46 10° N 08:45:15 45° NW 08:45:15 45° NW
Meteor 1-24 Rocket 3.5 08:42:03 10° N 08:47:20 84° NNE 08:47:20 84° NNE
Cosmos 1470 3.9 08:53:32 43° NNE 08:53:32 43° NNE 08:56:20 10° NNE
Atlas Centaur 2 4.4 08:53:57 17° SSE 08:54:11 17° SE 08:58:52 10° ESE
Cosmos 158 Rocket 4.1 08:48:53 10° NNW 08:54:17 78° ENE 08:54:58 66° SE
Cosmos 2263 Rocket 3.0 08:54:46 36° SE 08:56:01 41° ESE 09:01:12 10° NE
Cosmos 923 Rocket 4.1 08:51:04 10° NNW 08:55:44 66° NW 08:55:44 66° NW
Meteor 2-5 Rocket 4.0 08:50:58 10° NNW 08:55:43 53° WNW 08:55:43 53° WNW
NOSS 2-3 (D) 4.1 09:00:01 50° E 09:00:01 50° E 09:04:03 10° NE
Cosmos 2297 Rocket 3.8 08:59:54 20° WNW 09:00:08 20° NW 09:04:17 10° N
IRS-1C 4.1 08:55:38 10° NNE 09:00:59 78° ESE 09:01:38 68° SSE
Cosmos 2098 Rocket 3.7 08:59:33 10° N 09:04:48 84° E 09:06:46 46° SSE
Cosmos 1544 Rocket 3.6 09:05:46 77° NE 09:05:46 77° NE 09:09:59 10° N
Cosmos 2292 Rocket 4.5 08:59:11 10° N 09:06:44 82° W 09:08:21 53° S
Cosmos 858 Rocket 4.3 09:11:28 71° WSW 09:11:54 77° WNW 09:17:13 10° NNE
Cosmos 2237 Rocket 4.3 09:12:43 10° NW 09:13:22 12° WNW 09:13:22 12° WNW
USA 229 DEB 3.6 09:15:07 50° WSW 09:16:47 70° WNW 09:23:34 10° NNE
USA 229 3.6 09:15:13 51° WSW 09:16:52 70° NW 09:23:37 10° NNE
Timation 1 Rocket 4.3 09:19:24 54° SW 09:20:45 73° WNW 09:26:43 10° NNE
SeaSat 1 3.9 09:17:01 10° NE 09:21:22 30° ESE 09:23:49 20° SSE
H-2A R/B (2) 3.6 09:26:59 11° SE 09:26:59 11° SE 09:27:07 10° SE
Okean 1-7 Rocket 3.9 09:21:48 10° NNW 09:25:33 49° WNW 09:25:33 49° WNW
NOSS 2-3 (C) 3.4 09:27:29 70° W 09:27:47 74° WNW 09:32:28 10° NNE
NOSS 3-1 (A) 3.1 09:26:42 52° SW 09:28:03 77° WNW 09:34:08 10° NNE
Spot 4 Rocket 4.1 09:24:28 10° NNE 09:29:39 75° ESE 09:31:42 37° S
Cosmos 1602 Rocket 4.3 09:25:36 10° N 09:29:50 50° E 09:32:55 17° SSE
Cosmos 1758 4.0 09:32:55 41° WNW 09:32:55 41° WNW 09:36:14 10° N
Cosmos 1726 2.0 09:34:26 77° NW 09:34:26 77° NW 09:37:59 10° N
OAO 3 Rocket 3.5 09:35:51 48° SSW 09:36:30 51° SSE 09:41:18 10° E
Resurs 1-4 Rocket 4.1 09:37:19 10° NW 09:39:22 12° WNW 09:39:46 12° WNW
DEBRIS 2.4 09:41:38 62° NE 09:41:38 62° NE 09:43:25 10° NE
CZ-2C R/B 3.1 09:37:31 10° NNE 09:41:20 59° E 09:42:36 37° SSE
Cosmos 1607 4.2 09:36:35 10° NW 09:42:44 48° WSW 09:48:38 11° S
SL-16 R/B 4.2 09:45:28 15° WNW 09:45:28 15° WNW 09:47:51 10° NW
SJ 16-02 3.6 09:45:04 13° WNW 09:45:04 13° WNW 09:46:53 10° NW
Cosmos 1340 Rocket 4.1 09:46:33 26° WNW 09:46:33 26° WNW 09:49:31 10° NNW
Cosmos 1943 4.0 09:42:44 10° NNW 09:48:13 52° ENE 09:53:40 10° SE
Cosmos 1908 3.8 09:46:32 25° SSE 09:48:33 55° E 09:52:23 10° NNE
Cosmos 1553 Rocket 4.3 09:44:40 12° S 09:50:19 64° E 09:56:20 10° NNE
Cosmos 1937 Rocket 4.4 09:50:26 29° W 09:51:44 33° WNW 09:56:31 10° N
Cosmos 1953 2.5 09:53:33 45° WSW 09:54:10 50° W 09:58:07 10° N
SL-4 R/B 1.3 09:53:41 20° NW 09:55:54 85° SW 09:59:19 10° SE
ATLAS CENTAUR R/B 2.4 09:54:24 21° S 09:56:46 39° ESE 10:00:34 10° NE
Landsat 5 3.9 09:53:08 10° SSE 09:56:55 57° ENE 10:00:50 10° N
Cosmos 2150 Rocket 4.0 09:54:14 26° SSW 09:57:14 83° ESE 10:02:27 10° NNE
USA 215 4.4 09:53:09 10° NNE 09:58:48 32° NNW 10:03:28 14° W
COSMOS 2441 4.4 09:56:27 10° NNE 10:01:16 83° ESE 10:04:50 18° S
Cosmos 1626 Rocket 3.8 09:58:00 10° NNW 10:02:09 47° W 10:03:42 32° SW
ARIANE 5 R/B 3.3 09:57:39 10° N 10:02:24 36° WNW 10:04:20 27° WSW
Meteor 1-21 Rocket 4.1 09:59:09 10° NNW 10:04:39 68° W 10:10:07 10° S
Meteor 2-21 Rocket 4.3 09:59:25 10° N 10:05:29 76° W 10:11:32 10° S
SL-08 R/B 4.1 10:04:30 29° SW 10:05:45 33° W 10:10:14 10° NNW
CZ-2D R/B 4.1 10:02:52 10° N 10:06:33 36° WNW 10:07:35 30° WSW
Meteor 2-16 Rocket 4.4 10:01:43 10° N 10:07:54 87° W 10:14:03 10° S
Cosmos 1244 Rocket 4.5 10:02:20 10° N 10:08:41 77° W 10:14:58 10° S
Cosmos 372 Rocket 4.3 10:07:49 27° SW 10:10:19 48° WNW 10:15:23 10° N
MSX 3.8 10:04:57 10° N 10:10:43 73° WNW 10:15:22 16° SSW
Cosmos 2228 3.2 10:09:59 12° S 10:14:02 75° E 10:18:26 10° N
IDEFIX/ARIANE 42P 3.0 10:09:18 10° N 10:14:12 43° WNW 10:17:09 22° SW
CZ-2C R/B 2.8 10:11:11 10° NNE 10:15:43 58° E 10:20:17 10° S
Cosmos 1328 3.9 10:13:20 10° N 10:17:20 75° E 10:21:19 10° S
Meteor 1-16 Rocket 4.3 10:14:19 20° SSW 10:17:53 54° WNW 10:23:15 10° N
S3M 4.2 10:11:39 10° S 10:17:59 78° E 10:24:24 10° N
Cosmos 1758 Rocket 3.4 10:16:37 10° N 10:20:57 86° W 10:25:16 10° S
Cosmos 1703 3.2 10:20:16 10° NNW 10:24:14 72° W 10:28:09 10° S
ADEOS II 4.1 10:22:14 10° NW 10:24:15 12° WNW 10:26:05 10° W
SL-08 R/B 4.4 10:18:54 10° N 10:25:07 81° W 10:31:22 10° S
SL-16 R/B 3.9 10:23:18 10° WNW 10:25:33 14° W 10:25:33 14° W
Cosmos 1300 3.7 10:22:53 10° SSE 10:26:33 47° E 10:30:14 10° NNE
USA 267 3.3 10:21:44 10° SE 10:28:17 85° NE 10:34:50 10° NW
Cosmos 1125 Rocket 3.5 10:24:43 13° SSW 10:29:25 79° WNW 10:34:41 10° NNE
H-2A R/B 2.2 10:28:24 10° S 10:32:21 44° W 10:36:17 10° NNW
Cosmos 724 4.5 10:26:39 10° NW 10:32:33 54° WSW 10:38:29 10° S
FALCON 9 DEB 3.0 10:35:03 10° NW 10:38:29 67° SW 10:41:55 10° SE
Cosmos 2263 Rocket 3.4 10:36:29 14° WSW 10:40:02 25° WNW 10:44:37 10° N
Aureole 3 4.2 10:36:00 10° SSW 10:40:49 63° W 10:47:01 10° N
ATLAS 3B CENTAUR R/B 3.4 10:33:48 10° W 10:42:40 31° SSW 10:47:11 10° SE
Atlas Centaur 2 3.8 10:36:32 13° SW 10:42:43 39° SSE 10:50:23 10° E
Cosmos 1825 Rocket 3.5 10:38:36 10° NNW 10:42:52 61° W 10:47:06 10° S
Meteor 1-31 Rocket 4.4 10:39:50 10° NNE 10:43:24 35° E 10:46:54 10° SSE
Cosmos 494 Rocket 4.5 10:42:16 10° NNW 10:47:25 66° ENE 10:52:34 10° SSE
Cosmos 1484 Rocket 3.9 10:44:04 10° NNE 10:47:36 42° E 10:51:07 10° S
Cosmos 1953 Rocket 3.6 10:45:20 10° N 10:49:50 81° W 10:54:18 10° S
Delta 2 Rocket 3.3 10:48:36 13° WSW 10:51:50 61° S 10:55:57 10° E
Cosmos 2315 Rocket 4.4 10:46:53 10° S 10:53:07 72° E 10:59:28 10° N
Hubble Space Telescope 3.1 10:56:56 10° S 10:58:31 12° SSE 11:00:06 10° SE
SeaSat 1 3.4 10:54:27 10° N 10:58:48 32° WNW 11:03:07 10° WSW
NOSS 2-2 (C) 3.5 10:59:39 10° SSW 11:03:13 60° ESE 11:06:49 10° NE
CZ-4B R/B 1.3 11:00:26 10° S 11:03:43 63° W 11:06:56 10° NNW
ERS-2 3.5 11:02:02 10° SW 11:04:45 20° W 11:07:29 10° NW
Cosmos 1844 Rocket 2.7 11:00:11 10° SSW 11:05:45 76° WNW 11:11:21 10° NNE
ADEOS Rocket 3.7 11:05:07 10° SSE 11:12:36 89° E 11:20:27 10° NNW
